Rutherfordton, NC

11:44 AM EDT on March 27, 2017 (GMT -0400)
Rutherford County-Marchman

Weather History for KFQD - December, 2013

Change the Weather History Date:

Wednesday, December 18, 2013

  Actual Average (KAVL) Record (KAVL)
Temperature  
Mean Temperature 40 °F -  
Max Temperature 52 °F 49 °F 78 °F (1924)
Min Temperature 28 °F 24 °F 8 °F (1953)
Degree Days  
Heating Degree Days 25    
Moisture  
Dew Point 14 °F    
Average Humidity 38    
Maximum Humidity 70    
Minimum Humidity 13    
Precipitation  
Precipitation 0.00 in - - ()
Sea Level Pressure  
Sea Level Pressure 30.22 in    
Wind  
Wind Speed 4 mph (West)    
Max Wind Speed 13 mph    
Max Gust Speed 18 mph    
Visibility 10 miles    
Events      
Averages and records for this station are not official NWS values.
T = Trace of Precipitation, MM = Missing Value Source: NWS Daily Summary

Daily Weather History Graph

Daily Weather History Graph

Search for Another Location

Airport or City:

Trip Planner

Search our weather history database for the weather conditions in past years. The results will help you decide how hot, cold, wet, or windy it might be!

Date:

Astronomy

Dec. 18, 2013 Rise Set
Actual Time 7:31 AM EST 5:17 PM EST
Civil Twilight 7:03 AM EST 5:45 PM EST
Nautical Twilight 6:31 AM EST 6:17 PM EST
Astronomical Twilight 6:00 AM EST 6:48 PM EST
Moon 6:45 PM EST (12/18) 8:12 AM EST (12/18)
Length of Visible Light 10h 42m
Length of Day
9h 46m
Full, 98% of the Moon is Illuminated
Dec 18
Full
Dec 25
Last Quarter
Jan 1
New
Jan 7
First Quarter
Jan 15
Full

Hourly Weather History & Observations

Time (EST) Temp. Windchill Dew Point Humidity Pressure Visibility Wind Dir Wind Speed Gust Speed Precip Events Conditions
12:15 AM 43.5 °F 37.1 °F 20.7 °F 40% 30.09 in 10.0 mi West 12.7 mph 18.4 mph N/A   Clear
12:35 AM 42.4 °F 37.0 °F 20.1 °F 41% 30.09 in 10.0 mi West 9.2 mph - N/A   Clear
12:55 AM 42.1 °F 38.4 °F 19.4 °F 40% 30.09 in 10.0 mi West 5.8 mph - N/A   Clear
1:15 AM 41.4 °F 37.6 °F 19.2 °F 41% 30.09 in 10.0 mi West 5.8 mph - N/A   Clear
1:35 AM 41.4 °F 38.4 °F 18.5 °F 40% 30.10 in 10.0 mi WSW 4.6 mph - N/A   Clear
1:55 AM 40.8 °F 38.8 °F 17.8 °F 40% 30.10 in 10.0 mi WSW 3.5 mph - N/A   Clear
2:15 AM 40.6 °F 37.5 °F 17.4 °F 39% 30.11 in 10.0 mi SW 4.6 mph - N/A   Clear
2:35 AM 38.7 °F 34.3 °F 18.1 °F 44% 30.12 in 10.0 mi West 5.8 mph - N/A   Clear
2:55 AM 40.1 °F 36.1 °F 16.9 °F 39% 30.12 in 10.0 mi West 5.8 mph - N/A   Clear
3:15 AM 39.6 °F 34.0 °F 17.2 °F 41% 30.12 in 10.0 mi West 8.1 mph - N/A   Clear
3:35 AM 37.4 °F 32.8 °F 17.6 °F 45% 30.13 in 10.0 mi WNW 5.8 mph - N/A   Clear
3:55 AM 37.4 °F 34.9 °F 17.4 °F 44% 30.13 in 10.0 mi WNW 3.5 mph - N/A   Clear
4:15 AM 36.3 °F 33.7 °F 17.2 °F 46% 30.14 in 10.0 mi ENE 3.5 mph - N/A   Clear
4:35 AM 34.9 °F - 17.8 °F 50% 30.14 in 10.0 mi Calm Calm - N/A   Clear
4:55 AM 34.2 °F - 18.9 °F 54% 30.16 in 10.0 mi Calm Calm - N/A   Clear
5:15 AM 34.7 °F 31.8 °F 18.9 °F 52% 30.16 in 10.0 mi SE 3.5 mph - N/A   Clear
5:35 AM 35.1 °F 32.2 °F 19.0 °F 52% 30.16 in 10.0 mi SSE 3.5 mph - N/A   Clear
5:55 AM 34.7 °F - 19.2 °F 53% 30.17 in 10.0 mi Calm Calm - N/A   Clear
6:15 AM 31.8 °F - 19.8 °F 61% 30.17 in 10.0 mi Calm Calm - N/A   Clear
6:35 AM 31.8 °F - 19.2 °F 60% 30.18 in 10.0 mi Calm Calm - N/A   Clear
6:55 AM 29.8 °F - 20.3 °F 68% 30.19 in 10.0 mi Calm Calm - N/A   Clear
7:15 AM 30.6 °F - 19.6 °F 64% 30.21 in 10.0 mi Calm Calm - N/A   Clear
7:35 AM 28.9 °F - 20.1 °F 70% 30.21 in 10.0 mi Calm Calm - N/A   Clear
7:55 AM 29.5 °F - 20.5 °F 69% 30.22 in 10.0 mi Calm Calm - N/A   Clear
8:15 AM 31.5 °F - 20.8 °F 65% 30.24 in 10.0 mi Calm Calm - N/A   Clear
8:35 AM 34.2 °F - 21.0 °F 59% 30.24 in 10.0 mi Calm Calm - N/A   Clear
8:55 AM 35.6 °F - 23.7 °F 62% 30.24 in 10.0 mi Calm Calm - N/A   Clear
9:15 AM 37.6 °F - 16.3 °F 42% 30.25 in 10.0 mi Calm Calm - N/A   Clear
9:35 AM 38.8 °F - 16.2 °F 40% 30.26 in 10.0 mi Calm Calm - N/A   Clear
9:55 AM 40.5 °F - 16.9 °F 39% 30.27 in 10.0 mi Calm Calm - N/A   Clear
10:15 AM 41.0 °F - 16.0 °F 36% 30.27 in 10.0 mi Calm Calm - N/A   Clear
10:35 AM 41.4 °F - 15.1 °F 35% 30.28 in 10.0 mi Calm Calm - N/A   Clear
10:55 AM 42.6 °F - 13.6 °F 31% 30.28 in 10.0 mi Calm Calm - N/A   Clear
11:15 AM 43.5 °F - 12.4 °F 28% 30.28 in 10.0 mi Calm Calm - N/A   Clear
11:35 AM 44.4 °F - 11.5 °F 26% 30.28 in 10.0 mi Calm Calm - N/A   Clear
11:55 AM 45.5 °F - 11.5 °F 25% 30.27 in 10.0 mi Calm Calm - N/A   Clear
12:15 PM 45.7 °F 43.4 °F 11.7 °F 25% 30.26 in 10.0 mi North 4.6 mph - N/A   Clear
12:35 PM 46.4 °F 45.2 °F 12.7 °F 26% 30.26 in 10.0 mi North 3.5 mph - N/A   Clear
12:55 PM 47.7 °F - 11.8 °F 24% 30.25 in 10.0 mi Calm Calm - N/A   Clear
1:15 PM 48.9 °F - 11.3 °F 22% 30.24 in 10.0 mi WNW 5.8 mph - N/A   Clear
1:35 PM 48.6 °F - 10.8 °F 22% 30.24 in 10.0 mi SSW 3.5 mph - N/A   Clear
1:55 PM 48.9 °F - 10.6 °F 21% 30.24 in 10.0 mi Calm Calm - N/A   Clear
2:15 PM 51.1 °F - 9.3 °F 19% 30.24 in 10.0 mi NW 5.8 mph - N/A   Clear
2:35 PM 50.4 °F - 8.2 °F 18% 30.24 in 10.0 mi Calm Calm - N/A   Clear
2:55 PM 51.1 °F - 9.3 °F 19% 30.23 in 10.0 mi SE 4.6 mph - N/A   Scattered Clouds
3:15 PM 51.8 °F - 8.8 °F 18% 30.24 in 10.0 mi Calm Calm - N/A   Clear
3:35 PM 51.6 °F - 5.5 °F 15% 30.24 in 10.0 mi Calm Calm - N/A   Clear
3:55 PM 52.9 °F - 1.9 °F 13% 30.24 in 10.0 mi West 5.8 mph - N/A   Clear
4:15 PM 52.2 °F - 1.8 °F 13% 30.24 in 10.0 mi West 4.6 mph - N/A   Clear
4:35 PM 52.2 °F - 1.6 °F 13% 30.24 in 10.0 mi Calm Calm - N/A   Clear
4:55 PM 51.1 °F - 1.6 °F 13% 30.24 in 10.0 mi Calm Calm - N/A   Clear
5:15 PM 49.8 °F - 1.8 °F 14% 30.24 in 10.0 mi WSW 3.5 mph - N/A   Clear
5:35 PM 48.6 °F - 2.3 °F 15% 30.25 in 10.0 mi West 3.5 mph - N/A   Clear
5:55 PM 47.7 °F - 2.1 °F 15% 30.25 in 10.0 mi West 4.6 mph - N/A   Clear
6:15 PM 47.5 °F - 3.0 °F 16% 30.25 in 10.0 mi WSW 3.5 mph - N/A   Clear
6:35 PM 46.9 °F - 4.8 °F 18% 30.26 in 10.0 mi Calm Calm - N/A   Clear
6:55 PM 45.9 °F 44.6 °F 9.0 °F 22% 30.26 in 10.0 mi SW 3.5 mph - N/A   Clear
7:15 PM 43.0 °F - 8.2 °F 24% 30.26 in 10.0 mi Calm Calm - N/A   Clear
7:35 PM 42.8 °F - 11.5 °F 28% 30.27 in 10.0 mi Calm Calm - N/A   Clear
7:55 PM 37.2 °F - 12.6 °F 36% 30.27 in 10.0 mi Calm Calm - N/A   Clear
8:15 PM 37.8 °F - 13.6 °F 37% 30.27 in 10.0 mi Calm Calm - N/A   Clear
8:35 PM 38.1 °F - 16.5 °F 42% 30.27 in 10.0 mi Calm Calm - N/A   Clear
8:55 PM 37.2 °F - 15.8 °F 42% 30.27 in 10.0 mi Calm Calm - N/A   Clear
9:15 PM 35.6 °F - 17.2 °F 47% 30.27 in 10.0 mi Calm Calm - N/A   Clear
9:35 PM 35.2 °F - 16.3 °F 46% 30.27 in 10.0 mi Calm Calm - N/A   Clear
9:55 PM 33.1 °F - 17.6 °F 53% 30.27 in 10.0 mi Calm Calm - N/A   Clear
10:15 PM 32.0 °F - 18.3 °F 57% 30.28 in 10.0 mi Calm Calm - N/A   Clear
10:35 PM 34.0 °F - 17.2 °F 50% 30.28 in 10.0 mi Calm Calm - N/A   Clear
10:55 PM 31.6 °F - 18.7 °F 59% 30.28 in 10.0 mi Calm Calm - N/A   Clear
11:15 PM 31.3 °F - 18.5 °F 59% 30.28 in 10.0 mi Calm Calm - N/A   Clear
11:35 PM 30.7 °F - 18.1 °F 60% 30.29 in 10.0 mi Calm Calm - N/A   Clear
11:55 PM 29.8 °F 26.3 °F 19.2 °F 65% 30.28 in 10.0 mi NNW 3.5 mph - N/A   Clear